Regional Weather Roundup
Issued by NWS New Orleans/Baton Rouge, LA

Home | Current Version | Previous Version | Graphics & Text | Print | Product List | Glossary On
Versions: 1 2 3 4 5 6 7 8 9 10 11 12 13 14 15 16 17 18 19 20 21 22 23 24 25 26 27 28 29 30 31 32 33 34 35 36 37 38 39 40 41 42 43 44 45 46 47 48 49 50
540
ASUS44 KLIX 192010
RWRLIX
NEW ORLEANS REGIONAL WEATHER ROUNDUP
NATIONAL WEATHER SERVICE NEW ORLEANS LA
300 PM CDT FRI SEP 19 2014

NOTE: "FAIR" INDICATES FEW OR NO CLOUDS BELOW 12,000 FEET WITH NO
      SIGNIFICANT WEATHER AND/OR OBSTRUCTIONS TO VISIBILITY.
      SKY/WX - SKY CONDITION AND SIGNIFICANT WEATHER.
      TMP - AIR TEMPERATURE.     DP    - DEWPOINT TEMPERATURE.
      RH  - RELATIVE HUMIDITY.   PRES  - PRESSURE.
      HI  - HEAT INDEX.          WCI   - WIND CHILL INDEX.

*  THESE STATIONS ARE NOT NWS OR FAA STATIONS AND ARE NOT UNDER
   NWS QUALITY CONTROL.

LAZ038-040-048-061>063-065>067-069-192100-
SOUTHEAST LOUISIANA

CITY           SKY/WX    TMP DP  RH WIND       PRES   REMARKS
N.O. AUDUBON     N/A     87  71  60 MISG        N/A
N.O. INTL ARPT MOSUNNY   87  66  49 E14G22    29.92F
N.O. LAKEFRONT PTSUNNY   85  69  58 E16       29.93F
N.O. DOWNTOWN*   N/A     86  66  51 E9G18     29.93F
SLIDELL        SUNNY     87  67  51 E8G17     29.93F
BATON ROUGE    PTSUNNY   87  69  54 E9        29.93F
BOOTHVILLE     CLOUDY    79  72  79 E9        29.92F
BELLE CHASSE   LGT RAIN  81  72  74 SE14      29.92F
BOGALUSA*      LGT RAIN  85  72  64 N6        29.95F
GALLIANO*      NOT AVBL
NEW ROADS*       N/A     87  70  57 E8        29.93F
GONZALES*        N/A     86  70  58 E9        29.92F
HAMMOND*       LGT RAIN  81  72  74 N6        29.95F
HOUMA*         PTSUNNY   88  46  23 NE12      29.91F
PORT FOURCHON* MOCLDY    77  72  83 E16G29    29.95S

$$

MSZ070-080>082-192100-
SOUTHERN MISSISSIPPI

CITY           SKY/WX    TMP DP  RH WIND       PRES   REMARKS
MCCOMB         SUNNY     87  67  51 MISG      29.95F
GULFPORT       MOSUNNY   86  64  47 SE15      29.93F
BILOXI         SUNNY     88  67  48 S13       29.94F
PASCAGOULA     MOSUNNY   87  65  47 SE9       29.94F
STENNIS ARPT*  MOSUNNY   88  61  40 SE13G20   29.94F

$$

COASTAL OBSERVATIONS
LAKE AND NEARSHORE STATIONS

STATION/POSITION TIME  TEMP    WIND        PRES    WAVE
                       AIR SEA DIR/SP/G            HT/PER
                 (UTC) (F)     (DEG/KT/KT) (MB)    (FT/S)
PASCAGOULA       2000   85     120/ 10/ 16 1013.7
WAVELAND YACHT   2000   82     110/ 16/ 18 1013.2
GRAND ISLE       2000   77 84  100/ 10/ 19 1013.9
SOUTHWEST PASS   2000   78 90   70/ 16/ 19 1013.3
NEW CANAL        2000   84 82   80/ 12/ 18 1013.8
SHELL BEACH      2000   79 80  130/ 14/ 17 1013.4

OFFSHORE STATIONS

STATION/POSITION TIME  TEMP    WIND        PRES    WAVE
                       AIR SEA DIR/SP/G            HT/PER
                 (UTC) (F)     (DEG/KT/KT) (MB)    (FT/S)
64 S DAUPHIN ISL 1917   80 84   90/ 19/ 25 1013.4    7/ 6

$$




USA.gov is the U.S. government's official web portal to all federal, state and local government web resources and services.